Regional Weather Roundup
Issued by NWS Grand Forks, ND

Home | Current Version | Previous Version | Graphics & Text | Print | Product List | Glossary On
Versions: 1 2 3 4 5 6 7 8 9 10 11 12 13 14 15 16 17 18 19 20 21 22 23 24 25 26 27 28 29 30 31 32 33 34 35 36 37 38 39 40 41 42 43 44 45 46 47 48 49 50
000
ASUS43 KFGF 201931
RWRFGF
PRAIRIE TO PINES  WEATHER ROUNDUP
NATIONAL WEATHER SERVICE EASTERN NORTH DAKOTA/GRAND FORKS ND
200 PM CDT SAT SEP 20 2014

 **SATELLITE DATA USED TO AUGMENT SKY COVER AT AUTOMATED STATIONS**
 *****  WEATHER ACROSS EASTERN NORTH DAKOTA  *****

CITY           SKY/WX    TMP DP  RH WIND       PRES   REMARKS
GRAND FORKS    CLOUDY    57  54  88 NW16G26   29.77R
GRAND FRKS AFB CLOUDY    57  57 100 N20G26    29.79R
GRAND FRKS NWS   N/A     57 N/A N/A N12         N/A
DEVILS LAKE    PTSUNNY   64  50  59 NW22G33   29.83S
FARGO          LGT RAIN  60  53  77 W18G35    29.80R
WAHPETON ARPT  MOCLDY    55  54  94 NW9       29.81R
$$

 ***** WEATHER ACROSS CENTRAL AND WESTERN NORTH DAKOTA  *****

CITY           SKY/WX    TMP DP  RH WIND       PRES   REMARKS
BISMARCK       MOSUNNY   72  46  39 NW22G36   29.97R
MINOT          SUNNY     70  43  37 NW25G39   29.93R
JAMESTOWN      PTSUNNY   63  53  70 NW24G35   29.87R
MINOT AFB      SUNNY     69  46  43 NW29G37   29.92R
GARRISON         N/A     71  42  35 NW29G43   29.96R
WILLISTON      SUNNY     72  36  26 NW30G39   30.05R
DICKINSON      SUNNY     70  39  32 NW24G35   30.05R
HETTINGER      MOSUNNY   72  40  31 NW23G35   30.08R
$$

 *****  OTHER AIRPORT OBSERVATIONS IN OUR AREA  *****

CITY           SKY/WX    TMP DP  RH WIND       PRES   REMARKS
WALHALLA       FAIR      59  55  88 NW18G24   29.79S
GRAFTON AIRPOR MOCLDY    57  54  88 NW20G29   29.77S
VALLEY CITY AR LGT RAIN  63  59  88 NW25G33   29.84S
CANDO          FAIR      66  48  52 NW17G31   29.85R
CAVALIER APRT  FAIR      57  52  82 NW15G22   29.77S
GWINNER        MOCLDY    63  61  94 NW12      29.85S
ROLLA          FAIR      64  48  55 NW20G32   29.86S
 ***** THE ABOVE OBSERVATIONS ARE NON NWS ARE NOT QUALITY
       CONTROLLED AND MAY MIS-REPORT RAIN FOR SNOW...
$$

  *****  WEATHER ACROSS NORTHERN MINNESOTA  *****

CITY           SKY/WX    TMP DP  RH WIND       PRES   REMARKS
FLAG ISLAND    PTSUNNY   54  46  76 CALM      29.71S
WARROAD        CLOUDY    59  52  77 W6        29.71S
ROSEAU         RAIN      55  50  82 NW3       29.71F
HALLOCK        LGT RAIN  55  54  94 NW20G28   29.74R
THF RVR FALLS  CLOUDY    55  52  88 W12       29.71R
BAUDETTE       PTSUNNY   61  45  55 CALM      29.70F
WASKISH        PTSUNNY   63  55  77 CALM      29.71F
CROOKSTON      CLOUDY    55  55 100 NW26G32   29.76R
STEPHEN NDAWN    N/A     57  55  94 NW17        N/A
GREENBUSH NDAW   N/A     57  55  94 W10         N/A
$$
  *****  WEATHER ACROSS CENTRAL AND WEST MINNESOTA  *****

CITY           SKY/WX    TMP DP  RH WIND       PRES   REMARKS
FOSSTON        TSTM      63  54  72 W31G39    29.77R
BEMIDJI        CLOUDY    64  55  71 SW8       29.73F
PARK RAPIDS    PTSUNNY   69  54  58 W12       29.75F
ELBOW LAKE     FAIR      70  56  63 W8        29.77F
WADENA         MOSUNNY   66  55  68 W10G17    29.76F
DETROIT LAKES  MOSUNNY   66  55  68 W9        29.77F
MOORHEAD       RAIN      61  57  88 NW18G29   29.81R
FERGUS FALLS   LGT RAIN  66  55  68 W13       29.79R
MORRIS MN      SUNNY     75  55  50 W13G20    29.76F
STAPLES        PTSUNNY   70  54  56 W7        29.76F
$$
  *****  WEATHER ELSEWHERE ACROSS MINNESOTA  *****

CITY           SKY/WX    TMP DP  RH WIND       PRES   REMARKS
DULUTH         MOSUNNY   68  47  46 W13       29.71F
INTRNTL FALLS  MOSUNNY   60  48  64 W7        29.71F
ELY            CLOUDY    55  50  82 W3        29.73F
CLOQUET        SUNNY     68  48  49 W13G18    29.72F
WHEATON        RAIN      68  57  68 W9        29.79S
BRAINERD       PTSUNNY   65  55  70 W10       29.78F
HIBBING        SUNNY     67  45  45 NW9       29.73F
ALEXANDRIA     MOSUNNY   71  56  58 SW9       29.81F
SAINT CLOUD    MOSUNNY   75  55  49 W13       29.78F
MINNEAPOLIS    MOSUNNY   75  54  47 W15       29.77F
$$

  *****  WEATHER ACROSS SOUTH DAKOTA  *****

CITY           SKY/WX    TMP DP  RH WIND       PRES   REMARKS
SIOUX FALLS    MOSUNNY   81  54  39 W16G23    29.89F
BROOKINGS      NOT AVBL
WATERTOWN      MOSUNNY   76  55  48 SW21G28   29.84F
HURON          PTSUNNY   83  47  28 W25G32    29.86F
SISSETON         N/A     76  55  48 W20G26    29.76F
ABERDEEN         N/A    N/A N/A N/A MISG      29.84S
MITCHELL       MOSUNNY   83  54  36 W16G24    29.90F
PIERRE         MOSUNNY   82  46  28 NW25G35   29.95R
MOBRIDGE       MOSUNNY   74  51  44 NW21G36   29.94R
RAPID CITY     SUNNY     77  42  28 NW28G38   30.15
$$

  *****  SOME WEATHER IN NEARBY STATES *****

CITY           SKY/WX    TMP DP  RH WIND       PRES   REMARKS
GLASGOW MT     SUNNY     69  41  36 NW21G28   30.15S
GREAT FALLS MT SUNNY     70  42  36 NE3       30.25F
CHEYENNE WY    MOSUNNY   76  44  32 E10       30.28F
SCOTTSBLUFF NE SUNNY     81  50  33 W10       30.18F
OMAHA NE       MOSUNNY   82  67  60 SW8       29.92S
DES MOINES IA  MOSUNNY   82  65  56 W13       29.87R
DAVENPORT IA   PTSUNNY   74  66  76 W8        29.90R
CHICAGO IL     LGT RAIN  72  69  90 W13G22    29.85S
EAU CLAIRE WI  MOSUNNY   74  56  53 NW13      29.75F
LA CROSSE WI   MOSUNNY   76  62  62 NW8       29.75F
$$

  *****  SOME NATIONAL WEATHER *****

CITY           SKY/WX    TMP DP  RH WIND       PRES   REMARKS
LA GUARDIA NY  PTSUNNY   72  57  59 S18G25    30.18F
RALEIGH NC     PTSUNNY   79  57  46 NE12      30.10F
ATLANTA GA     MOSUNNY   82  61  48 E12       30.08F
NEW ORLEANS LA MOSUNNY   88  66  48 E10G20    29.96F HX  90
OKLAHOMA CITY  PTSUNNY   84  67  56 S8        30.02F
ALBUQUERQUE NM MOSUNNY   83  56  39 VRB3      30.15F
SALT LAKE CITY SUNNY     78  47  33 NW7       30.16F
LOS ANGELES CA CLOUDY    70  62  76 W10       29.96F
BOISE ID       SUNNY     78  44  29 VRB6      30.13F
SEATTLE WA     MOSUNNY   66  56  70 N14       30.08F
$$

*** WEATHER ACROSS MANITOBA...SASKATCHEWAN AND ONTARIO ***
                ***ONTARIO***

CITY           SKY/WX    TMP DP  RH WIND       PRES   REMARKS
GERALDTON      DRZL/FOG N/A N/A N/A N9          N/A  VSB 1
THUNDER BAY      N/A     63  54  72 N8        29.65R
SIOUX LOOKOUT  PTSUNNY   57  50  77 N6        29.69S
TORONTO        MOSUNNY   77  59  53 SW23G31   29.85F
BIG TROUT LK   PTSUNNY   46  34  61 NW7       29.73R
PICKLE LAKE    CLOUDY    46  41  81 NW7       29.71S
DRYDEN         CLOUDY    59  50  72 N3        29.69S
KENORA         PTSUNNY   57  46  67 S3        29.72S
$$
                *** MANITOBA***

CITY           SKY/WX    TMP DP  RH WIND       PRES   REMARKS
BRANDON        MOSUNNY   64  52  63 NW24      29.83R
DAUPHIN        PTSUNNY   61  52  72 N8        29.77S
ISLAND LAKE    PTSUNNY   50  39  66 SE6       29.76R
PILOT MOUND    NOT AVBL
THE PAS        CLOUDY    59  48  67 NW18      29.73R
THOMPSON       CLOUDY    46  41  81 E7        29.75R
WINNIPEG       LGT RAIN  55  54  94 NW12      29.75R
LYNN LAKE      CLOUDY    45  41  87 E7        29.78R
CHURCHILL      PTSUNNY   39  37  93 N12       29.83
GILLAM         MOSUNNY   45  34  65 NW3       29.79S
$$
                ***SASKATCHEWAN***

CITY           SKY/WX    TMP DP  RH WIND       PRES   REMARKS
ESTEVAN        MOSUNNY   66  43  42 NW18G29   29.99R
KINDERSLEY     PTSUNNY   63  41  45 W21G26    30.12
LLOYDMINSTER   PTSUNNY   66  34  30 NW17G25   30.07R
PRINCE ALBERT  MOSUNNY   64  45  48 NW23G30   29.91R
REGINA         MOSUNNY   64  43  45 NW29G36   30.00S
YORKTON        PTSUNNY   61  45  55 NW26G35   29.87R
N. BATTLEFORD  SUNNY     66  36  32 NW26G38   30.03S
LA RONGE       CLOUDY    55  50  82 W15G24    29.85R
SASKATOON      MOSUNNY   66  39  37 NW26G35   30.01
SWIFT CURRENT  SUNNY     64  36  34 NW25G32   30.12S
$$
NOTE: THESE ARE AUTOMATED STATIONS WITH LIMITED QUALITY CONTROL
      "FAIR" INDICATES FEW OR NO CLOUDS BELOW 12,000 FEET WITH NO
      SIGNIFICANT WEATHER AND/OR OBSTRUCTIONS TO VISIBILITY.
      SKY/WX - SKY CONDITION AND SIGNIFICANT WEATHER.
      TMP - AIR TEMPERATURE.    DP   - DEWPOINT TEMPERATURE.
      RH  - RELATIVE HUMIDITY.  PRES - PRESSURE.
      HX  - HEAT INDEX.         WCI  - WIND CHILL INDEX.
$



USA.gov is the U.S. government's official web portal to all federal, state and local government web resources and services.